Date String (YYYY-MM-DD hh:mm:ss) UTC,Instrument flags,absolute air pressure of the measurement (hPa),sample flow rate (lpm),inlet stack bypass flow (lpm),air temperature of the measurement (°C),ambient temperature measured by the external sensor (°C),aerosol sample conditioner tube jacket temperature (°C),OPC LED temperature (°C),internal box temperature (°C),relative humidity of the measurement (%),span deviation,mass concentration of particles derived from Lorenz-Mie calculation of OPC scattering (μg/m³),mass concentration of particles derived from Lorenz-Mie calculation of OPC scattering (μg/m³),mass concentration of particles derived from Lorenz-Mie calculation of OPC scattering (μg/m³)
DateTimeUTC,F1_M11,P_M11,Q1_M11,Q2_M11,T1_M11,T2_M11,T3_M11,T4_M11,T5_M11,U1_M11,ZSPAN_M11,X2_M11,X0_M11,X1_M11
2024-03-08 19:00:00,SystemResetWarning,0832.7,5.01,000.00,018.3,017.8,000.0,026.9,020.1,18.9,0000.0,0006.92,0009.31,0006.85
2024-03-08 19:01:00,SystemResetWarning,0832.7,5.00,000.00,018.3,017.8,000.0,026.9,020.1,19.2,0000.0,0006.88,0009.26,0006.82
2024-03-08 19:02:00,SystemResetWarning,0832.7,5.00,000.00,018.3,017.8,000.0,026.9,020.1,19.1,0000.0,0006.80,0009.17,0006.76
2024-03-08 19:03:00,SystemResetWarning,0832.7,4.99,000.00,018.3,017.8,000.0,026.9,020.1,19.2,0000.0,0006.66,0009.01,0006.62
2024-03-08 19:04:00,SystemResetWarning,0832.7,5.00,000.00,018.3,017.8,000.0,026.9,020.1,19.4,0000.0,0006.48,0008.81,0006.44
2024-03-08 19:05:00,SystemResetWarning,0832.7,4.99,000.00,018.3,017.8,000.0,026.9,020.1,19.4,0000.0,0006.32,0008.63,0006.28
2024-03-08 19:06:00,SystemResetWarning,0832.7,5.00,000.00,018.3,017.8,000.0,026.9,020.1,20.0,0000.0,0006.20,0008.48,0006.16
2024-03-08 19:07:00,SystemResetWarning,0832.7,5.01,000.00,018.3,017.8,000.0,026.9,020.1,19.7,0000.0,0006.07,0008.34,0006.02
2024-03-08 19:08:00,SystemResetWarning,0832.7,5.01,000.00,018.3,017.8,000.0,026.9,020.1,19.6,0000.0,0005.93,0008.22,0005.88
2024-03-08 19:09:00,SystemResetWarning,0832.6,5.00,000.00,018.3,017.8,000.0,026.9,020.1,19.6,0000.0,0005.80,0007.94,0005.75
2024-03-08 19:10:00,SystemResetWarning,0832.6,5.00,000.00,018.3,017.8,000.0,026.9,020.1,19.9,0000.0,0005.70,0007.79,0005.64
2024-03-08 19:11:00,SystemResetWarning,0832.6,5.00,000.00,018.3,017.8,000.0,026.9,020.1,20.1,0000.0,0005.62,0007.68,0005.55
2024-03-08 19:12:00,SystemResetWarning,0832.6,5.00,000.00,018.3,017.8,000.0,026.9,020.1,19.9,0000.0,0005.57,0007.61,0005.49
2024-03-08 19:13:00,SystemResetWarning,0832.6,5.00,000.00,018.3,017.8,000.0,026.9,020.1,19.6,0000.0,0005.57,0007.61,0005.49
2024-03-08 19:14:00,SystemResetWarning,0832.6,5.00,000.00,018.3,017.8,000.0,026.9,020.1,19.9,0000.0,0005.66,0007.76,0005.57
2024-03-08 19:15:00,SystemResetWarning,0832.6,5.00,000.00,018.3,017.8,000.0,026.9,020.1,20.2,0000.0,0005.80,0008.03,0005.69
2024-03-08 19:16:00,SystemResetWarning,0832.6,4.99,000.00,018.3,017.8,000.0,026.9,020.1,19.9,0000.0,0005.90,0008.15,0005.79
2024-03-08 19:17:00,SystemResetWarning,0832.6,5.00,000.00,018.3,017.7,000.0,026.9,020.1,19.8,0000.0,0006.01,0008.26,0005.90
2024-03-08 19:18:00,SystemResetWarning,0832.6,5.00,000.00,018.3,017.7,000.0,026.9,020.1,20.1,0000.0,0006.14,0008.41,0006.02
2024-03-08 19:19:00,SystemResetWarning,0832.6,5.01,000.00,018.3,017.8,000.0,026.9,020.1,19.7,0000.0,0006.24,0008.47,0006.12
2024-03-08 19:20:00,SystemResetWarning,0832.6,5.00,000.00,018.4,018.4,000.0,027.0,020.5,19.6,0000.0,0006.34,0008.56,0006.22
2024-03-08 19:21:00,SystemResetWarning,0832.6,5.00,000.00,018.7,019.2,000.0,027.1,021.1,19.5,0000.0,0006.46,0008.71,0006.32
2024-03-08 19:22:00,SystemResetWarning,0832.6,4.99,000.00,018.8,019.2,000.0,027.1,021.1,19.5,0000.0,0006.53,0008.78,0006.41
2024-03-08 19:23:00,SystemResetWarning,0832.6,4.99,000.00,018.8,019.1,000.0,027.1,020.9,19.7,0000.0,0006.60,0008.85,0006.48
2024-03-08 19:24:00,SystemResetWarning,0832.7,5.01,000.00,018.8,018.9,000.0,027.1,020.8,19.2,0000.0,0006.66,0008.90,0006.54
2024-03-08 19:25:00,SystemResetWarning,0832.6,5.00,000.00,018.8,018.7,000.0,027.1,020.7,19.1,0000.0,0006.70,0008.90,0006.59
2024-03-08 19:26:00,SystemResetWarning,0832.6,5.01,000.00,018.8,018.6,000.0,027.1,020.7,18.9,0000.0,0006.76,0008.84,0006.66
2024-03-08 19:27:00,SystemResetWarning,0832.6,5.00,000.00,018.8,018.5,000.0,027.2,020.6,19.0,0000.0,0006.82,0008.87,0006.72
2024-03-08 19:28:00,SystemResetWarning,0832.6,4.99,000.00,018.8,018.4,000.0,027.2,020.6,19.8,0000.0,0006.86,0008.92,0006.76
2024-03-08 19:29:00,SystemResetWarning,0832.5,4.99,000.00,018.8,018.3,000.0,027.2,020.5,20.2,0000.0,0006.89,0008.95,0006.79
2024-03-08 19:30:00,SystemResetWarning,0832.5,4.99,000.00,018.8,018.2,000.0,027.2,020.5,19.9,0000.0,0006.97,0009.05,0006.86
2024-03-08 19:31:00,SystemResetWarning,0832.5,5.01,000.00,018.7,018.1,000.0,027.2,020.5,20.1,0000.0,0007.06,0009.17,0006.94
2024-03-08 19:32:00,SystemResetWarning,0832.5,5.01,000.00,018.7,018.1,000.0,027.2,020.4,19.9,0001.5,0007.10,0009.26,0006.99
2024-03-08 19:33:00,SystemResetWarning,0832.5,5.01,000.00,018.7,018.0,000.0,027.2,020.4,19.9,0003.0,0007.18,0009.32,0007.07
2024-03-08 19:34:00,SystemResetWarning,0832.5,5.00,000.00,018.7,018.0,000.0,027.2,020.4,20.3,0003.4,0007.28,0009.43,0007.18
2024-03-08 19:35:00,SystemResetWarning,0832.5,5.00,000.00,018.6,017.9,000.0,027.2,020.3,20.1,0003.7,0007.40,0009.57,0007.29
2024-03-08 19:36:00,SystemResetWarning,0832.5,4.99,000.00,018.6,017.8,000.0,027.2,020.3,20.1,0003.2,0007.50,0009.70,0007.37
2024-03-08 19:37:00,SystemResetWarning,0832.5,5.00,000.00,018.6,017.8,000.0,027.2,020.3,20.0,0000.0,0007.56,0009.79,0007.42
2024-03-08 19:38:00,SystemResetWarning,0832.5,5.00,000.00,018.6,017.8,000.0,027.2,020.3,20.0,0000.0,0007.61,0009.84,0007.47
2024-03-08 19:39:00,SystemResetWarning,0832.5,5.00,000.00,018.5,017.8,000.0,027.2,020.3,20.1,0000.2,0007.71,0009.97,0007.55
2024-03-08 19:40:00,SystemResetWarning,0832.5,5.00,000.00,018.5,017.8,000.0,027.2,020.3,19.6,0001.6,0007.78,0010.07,0007.61
2024-03-08 19:41:00,SystemResetWarning,0832.5,5.00,000.00,018.5,017.8,000.0,027.1,020.3,19.3,0000.0,0007.82,0010.10,0007.66
2024-03-08 19:42:00,SystemResetWarning,0832.6,5.00,000.00,018.5,017.8,000.0,027.1,020.3,19.4,0000.0,0007.84,0010.09,0007.69
2024-03-08 19:43:00,SystemResetWarning,0832.5,4.99,000.00,018.5,017.8,000.0,027.1,020.3,19.7,0000.0,0007.85,0010.04,0007.70
2024-03-08 19:44:00,SystemResetWarning,0832.5,5.00,000.00,018.5,017.8,000.0,027.1,020.3,20.0,0000.0,0007.83,0010.06,0007.66
2024-03-08 19:45:00,SystemResetWarning,0832.5,5.00,000.00,018.5,017.8,000.0,027.1,020.3,19.6,0000.0,0007.77,0010.02,0007.59
2024-03-08 19:46:00,SystemResetWarning,0832.5,5.00,000.00,018.5,017.8,000.0,027.1,020.3,19.2,0000.0,0007.70,0009.96,0007.51
2024-03-08 19:47:00,SystemResetWarning,0832.5,5.01,000.00,018.5,017.8,000.0,027.1,020.3,19.3,0000.0,0007.64,0009.93,0007.44
2024-03-08 19:48:00,SystemResetWarning,0832.5,5.01,000.00,018.5,017.8,000.0,027.1,020.3,19.4,0000.0,0007.57,0009.84,0007.38
2024-03-08 19:49:00,SystemResetWarning,0832.5,5.00,000.00,018.5,017.8,000.0,027.1,020.2,19.6,0000.0,0007.51,0009.76,0007.33
2024-03-08 19:50:00,SystemResetWarning,0832.4,5.00,000.00,018.5,017.8,000.0,027.1,020.2,19.4,0000.0,0007.41,0009.63,0007.24
2024-03-08 19:51:00,SystemResetWarning,0832.4,4.99,000.00,018.5,017.8,000.0,027.1,020.3,19.5,0000.0,0007.26,0009.43,0007.10
2024-03-08 19:52:00,SystemResetWarning,0832.4,5.00,000.00,018.5,017.9,000.0,027.1,020.3,19.9,0000.0,0007.11,0009.30,0006.94
2024-03-08 19:53:00,SystemResetWarning,0832.3,5.01,000.00,018.5,017.9,000.0,027.1,020.3,20.3,0000.0,0006.97,0009.16,0006.79
2024-03-08 19:54:00,SystemResetWarning,0832.4,5.01,000.00,018.5,017.9,000.0,027.1,020.3,20.4,0000.0,0006.85,0009.06,0006.67
2024-03-08 19:55:00,SystemResetWarning,0832.3,5.01,000.00,018.5,017.9,000.0,027.1,020.3,20.3,0000.0,0006.72,0008.89,0006.55
2024-03-08 19:56:00,SystemResetWarning,0832.4,5.00,000.00,018.5,017.8,000.0,027.1,020.3,20.2,0000.0,0006.60,0008.74,0006.43
2024-03-08 19:57:00,SystemResetWarning,0832.4,5.00,000.00,018.5,017.9,000.0,027.1,020.3,20.3,0000.0,0006.47,0008.59,0006.29
2024-03-08 19:58:00,SystemResetWarning,0832.4,5.00,000.00,018.5,017.9,000.0,027.1,020.3,20.5,0000.0,0006.30,0008.35,0006.16
2024-03-08 19:59:00,SystemResetWarning,0832.4,5.00,000.00,018.5,017.8,000.0,027.1,020.2,20.4,0000.0,0006.19,0008.23,0006.04
